Columbia, MO

2:10 AM CDT on March 23, 2017 (GMT -0500)
Columbia Regional

Weather History for KCOU - November, 2010

Change the Weather History Date:

Sunday, November 21, 2010

  Actual Average Record
Temperature  
Mean Temperature 61 °F 42 °F  
Max Temperature 72 °F 51 °F 77 °F (1913)
Min Temperature 49 °F 33 °F 6 °F (1937)
Degree Days  
Heating Degree Days 4 23  
Month to date heating degree days 333 388  
Since 1 July heating degree days 560 753  
Cooling Degree Days 0 0  
Month to date cooling degree days 0 0  
Year to date cooling degree days 1500 1247  
Growing Degree Days 10 (Base 50)    
Moisture  
Dew Point 52 °F    
Average Humidity 75    
Maximum Humidity 93    
Minimum Humidity 57    
Precipitation  
Precipitation 0.00 in 0.11 in 0.97 in (1898)
Month to date precipitation 0.59 2.28  
Year to date precipitation 42.46 39.21  
Snow  
Snow 0.00 in 0.00 in 1.00 in (1906)
Month to date snowfall 0.0 0.4  
Since 1 July snowfall 0.0 0.4  
Since 1 September snowfall 0.0 0.4  
Snow Depth 0.00 in    
Sea Level Pressure  
Sea Level Pressure 29.89 in    
Wind  
Wind Speed 18 mph (South)    
Max Wind Speed 30 mph    
Max Gust Speed 38 mph    
Visibility 10 miles    
Events      
T = Trace of Precipitation, MM = Missing Value Source: NWS Daily Summary

Daily Weather History Graph

Daily Weather History Graph

Search for Another Location

Airport or City:

Trip Planner

Search our weather history database for the weather conditions in past years. The results will help you decide how hot, cold, wet, or windy it might be!

Date:

Astronomy

Nov. 21, 2010 Rise Set
Actual Time 6:57 AM CST 4:51 PM CST
Civil Twilight 6:29 AM CST 5:20 PM CST
Nautical Twilight 5:56 AM CST 5:52 PM CST
Astronomical Twilight 5:24 AM CST 6:24 PM CST
Moon 4:42 PM CST (11/21) 6:59 AM CST (11/21)
Length of Visible Light 10h 51m
Length of Day
9h 53m
Full, 100% of the Moon is Illuminated
Nov 21
Full
Nov 28
Last Quarter
Dec 5
New
Dec 13
First Quarter
Dec 21
Full

Hourly Weather History & Observations

Time (CST) Temp. Dew Point Humidity Pressure Visibility Wind Dir Wind Speed Gust Speed Precip Events Conditions
12:34 AM 50.0 °F 46.4 °F 87% 30.00 in 10.0 mi South 10.4 mph - N/A   Overcast
12:54 AM 50.0 °F 46.0 °F 86% 29.99 in 10.0 mi South 10.4 mph - N/A   Overcast
1:26 AM 50.0 °F 46.4 °F 87% 30.00 in 9.0 mi South 9.2 mph - N/A   Mostly Cloudy
1:52 AM 48.2 °F 46.4 °F 93% 29.99 in 9.0 mi North - - N/A   Scattered Clouds
1:54 AM 48.9 °F 46.0 °F 90% 29.99 in 9.0 mi North - - N/A   Scattered Clouds
2:50 AM 50.0 °F 46.4 °F 87% 29.97 in 9.0 mi SSE 9.2 mph - N/A   Overcast
2:54 AM 50.0 °F 46.9 °F 89% 29.97 in 9.0 mi SSE 9.2 mph - N/A   Overcast
3:54 AM 51.1 °F 46.9 °F 86% 29.96 in 9.0 mi North - - N/A   Overcast
4:54 AM 52.0 °F 48.0 °F 86% 29.93 in 10.0 mi SSE 9.2 mph - N/A   Overcast
5:54 AM 55.0 °F 50.0 °F 83% 29.92 in 10.0 mi SSE 12.7 mph - N/A   Overcast
6:54 AM 55.9 °F 51.1 °F 84% 29.92 in 10.0 mi South 12.7 mph - N/A   Overcast
7:54 AM 57.0 °F 52.0 °F 83% 29.92 in 10.0 mi South 15.0 mph - N/A   Overcast
8:54 AM 59.0 °F 53.1 °F 81% 29.91 in 10.0 mi South 12.7 mph - N/A   Overcast
9:29 AM 60.8 °F 53.6 °F 77% 29.91 in 10.0 mi South 19.6 mph 25.3 mph N/A   Overcast
9:54 AM 63.0 °F 54.0 °F 72% 29.89 in 10.0 mi South 19.6 mph 26.5 mph N/A   Overcast
10:54 AM 66.0 °F 55.0 °F 68% 29.87 in 10.0 mi South 26.5 mph 33.4 mph N/A   Mostly Cloudy
11:09 AM 66.2 °F 55.4 °F 68% 29.87 in 10.0 mi SSW 23.0 mph 34.5 mph N/A   Mostly Cloudy
11:29 AM 64.4 °F 55.4 °F 73% 29.87 in 10.0 mi SSW 20.7 mph 29.9 mph N/A   Overcast
11:54 AM 66.9 °F 55.0 °F 66% 29.85 in 10.0 mi SSW 25.3 mph 33.4 mph N/A   Mostly Cloudy
12:54 PM 69.1 °F 55.9 °F 63% 29.82 in 10.0 mi SSW 21.9 mph 34.5 mph N/A   Scattered Clouds
1:54 PM 71.1 °F 55.0 °F 57% 29.81 in 10.0 mi SSW 21.9 mph 33.4 mph N/A   Mostly Cloudy
2:54 PM 71.1 °F 55.0 °F 57% 29.80 in 10.0 mi SSW 24.2 mph 32.2 mph N/A   Scattered Clouds
3:54 PM 70.0 °F 54.0 °F 57% 29.79 in 10.0 mi SSW 26.5 mph 38.0 mph N/A   Clear
4:54 PM 68.0 °F 55.0 °F 63% 29.80 in 10.0 mi SSW 16.1 mph 28.8 mph N/A   Partly Cloudy
5:54 PM 68.0 °F 55.0 °F 63% 29.80 in 10.0 mi South 17.3 mph 33.4 mph N/A   Clear
6:54 PM 66.9 °F 55.0 °F 66% 29.82 in 10.0 mi South 18.4 mph 24.2 mph N/A   Overcast
7:54 PM 64.9 °F 55.9 °F 73% 29.84 in 10.0 mi South 11.5 mph 24.2 mph N/A   Overcast
8:54 PM 64.9 °F 55.9 °F 73% 29.84 in 10.0 mi South 17.3 mph 23.0 mph N/A   Overcast
9:54 PM 64.9 °F 57.0 °F 75% 29.85 in 10.0 mi South 17.3 mph - N/A   Overcast
10:54 PM 64.9 °F 57.9 °F 78% 29.84 in 10.0 mi South 16.1 mph - N/A   Overcast
11:54 PM 64.9 °F 57.9 °F 78% 29.84 in 10.0 mi South 18.4 mph 23.0 mph N/A   Overcast